| time (UTC) | temp F | wind direction | speed knots | gust knots | rain 1hr in | rain 24hr in | rain mn in | humidity % | barometer mb |
| 20260504180027 | 64 | 94 | 0.0 | 2.6 | 0.00 | 0.10 | 0.10 | 78 | 1004.0 |
| 20260504175527 | 64 | 96 | 0.0 | 1.7 | 0.00 | 0.10 | 0.10 | 78 | 1004.0 |
| 20260504175026 | 64 | 96 | 0.0 | 2.6 | 0.00 | 0.10 | 0.10 | 78 | 1004.1 |
| 20260504174526 | 64 | 97 | 0.0 | 2.6 | 0.00 | 0.10 | 0.10 | 79 | 1004.1 |
| 20260504174026 | 64 | 97 | 0.0 | 1.7 | 0.00 | 0.10 | 0.10 | 78 | 1004.2 |
| 20260504173526 | 64 | 97 | 0.0 | 1.7 | 0.00 | 0.10 | 0.10 | 80 | 1004.2 |
| 20260504173024 | 63 | 92 | 0.0 | 1.7 | 0.00 | 0.10 | 0.10 | 80 | 1004.3 |
| 20260504172524 | 63 | 91 | 0.0 | 0.0 | 0.00 | 0.10 | 0.10 | 81 | 1004.5 |
| 20260504172023 | 62 | 92 | 0.0 | 0.0 | 0.00 | 0.10 | 0.10 | 81 | 1004.6 |
| 20260504171531 | 62 | 89 | 0.0 | 0.0 | 0.00 | 0.10 | 0.10 | 82 | 1004.7 |
| 20260504171022 | 62 | 88 | 0.0 | 0.0 | 0.00 | 0.10 | 0.10 | 83 | 1004.7 |
| 20260504170523 | 61 | 88 | 0.0 | 0.0 | 0.00 | 0.10 | 0.10 | 83 | 1004.7 |
| 20260504151013 | 62 | 45 | 0.0 | 0.9 | 0.00 | 0.00 | 0.00 | 69 | 1006.0 |
| 20260504150514 | 63 | 42 | 0.0 | 0.9 | 0.00 | 0.00 | 0.00 | 69 | 1006.2 |
| 20260504141013 | 64 | 96 | 0.0 | 0.9 | 0.00 | 0.00 | 0.00 | 66 | 1006.3 |
| 20260504140511 | 64 | 96 | 0.0 | 0.9 | 0.00 | 0.00 | 0.00 | 66 | 1006.3 |
| 20260504130504 | 59 | 137 | 0.0 | 0.9 | 0.00 | 0.00 | 0.00 | 75 | 1006.8 |
| 20260504110559 | 54 | 137 | 0.0 | 0.0 | 0.00 | 0.00 | 0.00 | 82 | 1007.1 |
| 20260504100559 | 55 | 137 | 0.0 | 0.0 | 0.00 | 0.00 | 0.00 | 80 | 1007.4 |
| 20260504100103 | 55 | 137 | 0.0 | 0.0 | 0.00 | 0.00 | 0.00 | 79 | 1007.4 |
| 20260504090108 | 54 | 137 | 0.0 | 0.0 | 0.00 | 0.00 | 0.00 | 82 | 1007.1 |
| 20260504081552 | 55 | 137 | 0.0 | 0.0 | 0.00 | 0.00 | 0.00 | 79 | 1007.4 |
| 20260504081048 | 55 | 137 | 0.0 | 0.0 | 0.00 | 0.00 | 0.00 | 79 | 1007.4 |
| 20260504080547 | 55 | 137 | 0.0 | 0.0 | 0.00 | 0.00 | 0.00 | 78 | 1007.5 |
| 20260504050518 | 64 | 121 | 0.0 | 2.6 | 0.00 | 0.00 | 0.00 | 63 | 1007.6 |
| 20260504050013 | 64 | 101 | 0.0 | 1.7 | 0.00 | 0.00 | 0.00 | 64 | 1007.5 |
| 20260504045513 | 64 | 105 | 0.0 | 1.7 | 0.00 | 0.00 | 0.00 | 65 | 1007.6 |
| 20260504045012 | 63 | 123 | 0.0 | 0.9 | 0.00 | 0.00 | 0.00 | 66 | 1007.5 |
| 20260504044519 | 63 | 107 | 0.0 | 0.9 | 0.00 | 0.00 | 0.00 | 66 | 1007.6 |
| 20260504044012 | 63 | 95 | 0.0 | 0.0 | 0.00 | 0.00 | 0.00 | 66 | 1007.6 |
| 20260504043511 | 63 | 95 | 0.0 | 0.0 | 0.00 | 0.00 | 0.00 | 67 | 1007.7 |
| 20260504043011 | 64 | 95 | 0.0 | 0.0 | 0.00 | 0.00 | 0.00 | 68 | 1007.8 |
| 20260504042510 | 64 | 95 | 0.0 | 0.0 | 0.00 | 0.00 | 0.00 | 68 | 1008.0 |
| 20260504042009 | 64 | 95 | 0.0 | 0.0 | 0.00 | 0.00 | 0.00 | 65 | 1008.1 |
| 20260504041512 | 65 | 95 | 0.0 | 0.0 | 0.00 | 0.00 | 0.00 | 65 | 1008.2 |
| 20260504041008 | 65 | 95 | 0.0 | 0.9 | 0.00 | 0.00 | 0.00 | 64 | 1008.3 |
| 20260504040509 | 66 | 95 | 0.0 | 0.9 | 0.00 | 0.00 | 0.00 | 64 | 1008.4 |
| 20260504040013 | 66 | 95 | 0.0 | 0.0 | 0.00 | 0.00 | 0.00 | 66 | 1008.4 |
| 20260504035508 | 66 | 95 | 0.0 | 0.0 | 0.00 | 0.00 | 0.00 | 63 | 1008.5 |
| 20260504035009 | 67 | 95 | 0.0 | 0.0 | 0.00 | 0.00 | 0.00 | 62 | 1008.5 |
| 20260504034508 | 66 | 95 | 0.0 | 0.0 | 0.00 | 0.00 | 0.00 | 60 | 1008.6 |
| 20260504034013 | 66 | 95 | 0.0 | 0.9 | 0.00 | 0.00 | 0.00 | 60 | 1008.5 |
| 20260504033511 | 66 | 96 | 0.0 | 2.6 | 0.00 | 0.00 | 0.00 | 64 | 1008.5 |
| 20260504033011 | 66 | 101 | 0.0 | 2.6 | 0.00 | 0.00 | 0.00 | 65 | 1008.5 |
| 20260504032508 | 66 | 98 | 0.0 | 0.9 | 0.00 | 0.00 | 0.00 | 63 | 1008.3 |
| 20260504032009 | 65 | 98 | 0.0 | 0.9 | 0.00 | 0.00 | 0.00 | 63 | 1008.2 |
| 20260504031508 | 65 | 98 | 0.0 | 0.9 | 0.00 | 0.00 | 0.00 | 64 | 1008.6 |
| 20260504031006 | 65 | 98 | 0.0 | 0.0 | 0.00 | 0.00 | 0.00 | 66 | 1008.9 |
| 20260504030509 | 64 | 98 | 0.0 | 0.0 | 0.00 | 0.00 | 0.00 | 65 | 1009.0 |
| 20260504030008 | 64 | 98 | 0.0 | 0.0 | 0.00 | 0.00 | 0.00 | 67 | 1009.0 |
| 20260504025509 | 64 | 98 | 0.0 | 0.0 | 0.00 | 0.00 | 0.00 | 69 | 1008.9 |
| 20260504025006 | 64 | 98 | 0.0 | 0.0 | 0.00 | 0.00 | 0.00 | 66 | 1008.8 |
| 20260504024506 | 64 | 98 | 0.0 | 0.0 | 0.00 | 0.00 | 0.00 | 67 | 1008.6 |
| 20260504024005 | 65 | 98 | 0.0 | 0.0 | 0.00 | 0.00 | 0.00 | 65 | 1008.7 |
| 20260504023505 | 65 | 98 | 0.0 | 0.0 | 0.00 | 0.00 | 0.00 | 65 | 1008.7 |
| 20260504023006 | 65 | 98 | 0.0 | 0.0 | 0.00 | 0.00 | 0.00 | 65 | 1008.7 |
| 20260504022507 | 66 | 98 | 0.0 | 0.0 | 0.00 | 0.00 | 0.00 | 64 | 1008.7 |
| 20260504022006 | 66 | 98 | 0.0 | 0.0 | 0.00 | 0.00 | 0.00 | 66 | 1008.7 |
| 20260504021508 | 66 | 98 | 0.0 | 0.0 | 0.00 | 0.00 | 0.00 | 63 | 1008.6 |
| 20260504021005 | 67 | 98 | 0.0 | 0.0 | 0.00 | 0.00 | 0.00 | 63 | 1008.7 |
| 20260504020504 | 67 | 98 | 0.0 | 0.0 | 0.00 | 0.00 | 0.00 | 62 | 1008.6 |
| 20260504020004 | 67 | 98 | 0.0 | 0.0 | 0.00 | 0.00 | 0.00 | 60 | 1008.6 |
| 20260504015504 | 67 | 98 | 0.0 | 0.0 | 0.00 | 0.00 | 0.00 | 60 | 1008.6 |
| 20260504015004 | 67 | 98 | 0.0 | 0.0 | 0.00 | 0.00 | 0.00 | 60 | 1008.6 |
| 20260504014506 | 68 | 98 | 0.0 | 0.9 | 0.00 | 0.00 | 0.00 | 59 | 1008.5 |
| 20260504014004 | 68 | 98 | 0.0 | 0.9 | 0.00 | 0.00 | 0.00 | 59 | 1008.6 |
| 20260504013504 | 69 | 98 | 0.0 | 0.0 | 0.00 | 0.00 | 0.00 | 61 | 1008.6 |
| 20260504013004 | 69 | 98 | 0.0 | 0.0 | 0.00 | 0.00 | 0.00 | 59 | 1008.5 |
| 20260504012504 | 70 | 98 | 0.0 | 0.0 | 0.00 | 0.00 | 0.00 | 58 | 1008.4 |
| 20260504012004 | 71 | 98 | 0.0 | 0.0 | 0.00 | 0.00 | 0.00 | 57 | 1008.3 |
| 20260504011510 | 71 | 98 | 0.0 | 0.0 | 0.00 | 0.00 | 0.00 | 54 | 1008.2 |
| 20260504011002 | 72 | 98 | 0.0 | 0.9 | 0.00 | 0.00 | 0.00 | 55 | 1008.2 |
| 20260504010504 | 72 | 98 | 0.0 | 0.9 | 0.00 | 0.00 | 0.00 | 54 | 1008.2 |
| 20260504010002 | 73 | 98 | 0.0 | 0.0 | 0.00 | 0.00 | 0.00 | 49 | 1008.1 |
| 20260504005502 | 73 | 98 | 0.0 | 0.0 | 0.00 | 0.00 | 0.00 | 48 | 1008.1 |
| 20260504005004 | 74 | 98 | 0.0 | 0.0 | 0.00 | 0.00 | 0.00 | 47 | 1008.2 |
| 20260504004502 | 74 | 98 | 0.0 | 0.0 | 0.00 | 0.00 | 0.00 | 47 | 1008.1 |
| 20260504004002 | 74 | 98 | 0.0 | 0.0 | 0.00 | 0.00 | 0.00 | 45 | 1008.2 |
| 20260504003501 | 75 | 98 | 0.0 | 0.9 | 0.00 | 0.00 | 0.00 | 47 | 1008.2 |
| 20260504003003 | 75 | 102 | 0.0 | 0.9 | 0.00 | 0.00 | 0.00 | 44 | 1008.2 |
| 20260504002501 | 75 | 101 | 0.0 | 0.0 | 0.00 | 0.00 | 0.00 | 44 | 1008.2 |
| 20260504002001 | 76 | 101 | 0.0 | 0.0 | 0.00 | 0.00 | 0.00 | 44 | 1008.2 |
| 20260504001502 | 76 | 100 | 0.0 | 0.0 | 0.00 | 0.00 | 0.00 | 42 | 1008.2 |
| 20260504001101 | 76 | 100 | 0.0 | 0.9 | 0.00 | 0.00 | 0.00 | 43 | 1008.2 |
| 20260504000600 | 76 | 100 | 0.0 | 1.7 | 0.00 | 0.00 | 0.00 | 42 | 1008.2 |
| 20260504000130 | 76 | 100 | 0.0 | 1.7 | 0.00 | 0.00 | 0.00 | 42 | 1008.2 |
| 20260503235559 | 77 | 317 | 0.0 | 1.7 | 0.00 | 0.00 | 0.00 | 41 | 1008.2 |
| 20260503235101 | 77 | 292 | 0.0 | 3.5 | 0.00 | 0.00 | 0.00 | 41 | 1008.2 |
| 20260503234600 | 77 | 236 | 0.9 | 7.0 | 0.00 | 0.00 | 0.00 | 40 | 1008.2 |
| 20260503234059 | 77 | 189 | 0.9 | 7.0 | 0.00 | 0.00 | 0.00 | 40 | 1008.2 |
| 20260503233559 | 77 | 29 | 0.0 | 3.5 | 0.00 | 0.00 | 0.00 | 40 | 1008.3 |
| 20260503233059 | 78 | 333 | 0.0 | 6.1 | 0.00 | 0.00 | 0.00 | 40 | 1008.3 |
| 20260503232557 | 78 | 160 | 0.0 | 7.0 | 0.00 | 0.00 | 0.00 | 40 | 1008.4 |
| 20260503232057 | 78 | 208 | 0.9 | 7.0 | 0.00 | 0.00 | 0.00 | 39 | 1008.4 |
| 20260503231558 | 78 | 80 | 0.9 | 4.3 | 0.00 | 0.00 | 0.00 | 39 | 1008.4 |
| 20260503231057 | 78 | 298 | 0.0 | 3.5 | 0.00 | 0.00 | 0.00 | 40 | 1008.5 |
| 20260503230556 | 78 | 301 | 0.0 | 4.3 | 0.00 | 0.00 | 0.00 | 39 | 1008.5 |
| 20260503230058 | 78 | 310 | 0.9 | 4.3 | 0.00 | 0.00 | 0.00 | 40 | 1008.5 |
| 20260503225555 | 78 | 310 | 0.0 | 6.1 | 0.00 | 0.00 | 0.00 | 40 | 1008.5 |
| 20260503225055 | 78 | 190 | 0.9 | 6.1 | 0.00 | 0.00 | 0.00 | 39 | 1008.6 |
| 20260503224555 | 78 | 136 | 0.9 | 8.7 | 0.00 | 0.00 | 0.00 | 38 | 1008.6 |
| 20260503224054 | 78 | 103 | 0.0 | 6.1 | 0.00 | 0.00 | 0.00 | 39 | 1008.6 |
| 20260503223554 | 78 | 107 | 0.0 | 6.1 | 0.00 | 0.00 | 0.00 | 39 | 1008.7 |
| 20260503223054 | 78 | 93 | 0.9 | 6.1 | 0.00 | 0.00 | 0.00 | 37 | 1008.6 |
| 20260503222552 | 78 | 76 | 0.9 | 4.3 | 0.00 | 0.00 | 0.00 | 37 | 1008.7 |
| 20260503222051 | 78 | 342 | 0.9 | 6.1 | 0.00 | 0.00 | 0.00 | 38 | 1008.8 |
| 20260503221552 | 78 | 145 | 0.9 | 7.0 | 0.00 | 0.00 | 0.00 | 37 | 1008.8 |
| 20260503221051 | 78 | 194 | 0.0 | 6.1 | 0.00 | 0.00 | 0.00 | 39 | 1008.9 |
| 20260503220549 | 78 | 124 | 0.9 | 6.1 | 0.00 | 0.00 | 0.00 | 36 | 1009.0 |
| 20260503220050 | 78 | 171 | 0.9 | 7.8 | 0.00 | 0.00 | 0.00 | 36 | 1009.0 |
| 20260503215548 | 78 | 117 | 1.7 | 7.8 | 0.00 | 0.00 | 0.00 | 36 | 1009.1 |
| 20260503215048 | 78 | 170 | 0.0 | 6.1 | 0.00 | 0.00 | 0.00 | 37 | 1009.2 |
| 20260503214548 | 78 | 265 | 0.9 | 6.1 | 0.00 | 0.00 | 0.00 | 37 | 1009.2 |
| 20260503214047 | 78 | 136 | 1.7 | 6.1 | 0.00 | 0.00 | 0.00 | 36 | 1009.3 |
| 20260503213546 | 78 | 133 | 0.9 | 7.0 | 0.00 | 0.00 | 0.00 | 37 | 1009.2 |
| 20260503213047 | 78 | 139 | 1.7 | 7.0 | 0.00 | 0.00 | 0.00 | 36 | 1009.3 |
| 20260503212546 | 78 | 134 | 1.7 | 7.0 | 0.00 | 0.00 | 0.00 | 35 | 1009.3 |
| 20260503212045 | 78 | 126 | 1.7 | 7.0 | 0.00 | 0.00 | 0.00 | 37 | 1009.3 |
| 20260503211545 | 78 | 101 | 0.0 | 13.9 | 0.00 | 0.00 | 0.00 | 38 | 1009.4 |
| 20260503211043 | 77 | 129 | 0.9 | 13.9 | 0.00 | 0.00 | 0.00 | 36 | 1009.5 |
| 20260503210542 | 77 | 120 | 2.6 | 7.0 | 0.00 | 0.00 | 0.00 | 36 | 1009.6 |
| 20260503210042 | 78 | 252 | 1.7 | 5.2 | 0.00 | 0.00 | 0.00 | 36 | 1009.6 |
| 20260503205542 | 77 | 100 | 0.9 | 9.6 | 0.00 | 0.00 | 0.00 | 38 | 1009.7 |
| 20260503205041 | 77 | 95 | 3.5 | 10.4 | 0.00 | 0.00 | 0.00 | 35 | 1009.8 |
| 20260503204542 | 77 | 134 | 2.6 | 11.3 | 0.00 | 0.00 | 0.00 | 36 | 1010.0 |
| 20260503204040 | 77 | 88 | 1.7 | 9.6 | 0.00 | 0.00 | 0.00 | 35 | 1009.9 |
| 20260503203540 | 77 | 143 | 2.6 | 9.6 | 0.00 | 0.00 | 0.00 | 35 | 1009.9 |
| 20260503203047 | 78 | 73 | 0.9 | 8.7 | 0.00 | 0.00 | 0.00 | 38 | 1009.9 |
| 20260503202539 | 77 | 53 | 1.7 | 8.7 | 0.00 | 0.00 | 0.00 | 37 | 1010.0 |
| 20260503202038 | 77 | 306 | 1.7 | 5.2 | 0.00 | 0.00 | 0.00 | 36 | 1010.2 |
| 20260503201538 | 77 | 102 | 0.9 | 6.1 | 0.00 | 0.00 | 0.00 | 37 | 1010.2 |
| 20260503201035 | 76 | 111 | 0.0 | 10.4 | 0.00 | 0.00 | 0.00 | 39 | 1010.2 |
| 20260503200533 | 76 | 72 | 0.9 | 10.4 | 0.00 | 0.00 | 0.00 | 37 | 1010.3 |
| 20260503200033 | 76 | 107 | 3.5 | 9.6 | 0.00 | 0.00 | 0.00 | 37 | 1010.7 |
| 20260503195531 | 75 | 174 | 1.7 | 7.0 | 0.00 | 0.00 | 0.00 | 37 | 1010.8 |
| 20260503195030 | 75 | 186 | 1.7 | 9.6 | 0.00 | 0.00 | 0.00 | 38 | 1010.8 |
| 20260503194533 | 75 | 326 | 2.6 | 9.6 | 0.00 | 0.00 | 0.00 | 36 | 1011.0 |
| 20260503194029 | 75 | 153 | 2.6 | 8.7 | 0.00 | 0.00 | 0.00 | 38 | 1011.0 |
| 20260503193529 | 74 | 153 | 3.5 | 11.3 | 0.00 | 0.00 | 0.00 | 38 | 1011.2 |
| 20260503193028 | 74 | 128 | 1.7 | 9.6 | 0.00 | 0.00 | 0.00 | 38 | 1011.3 |
| 20260503192526 | 74 | 123 | 2.6 | 9.6 | 0.00 | 0.00 | 0.00 | 38 | 1011.4 |
| 20260503192026 | 74 | 94 | 2.6 | 9.6 | 0.00 | 0.00 | 0.00 | 37 | 1011.5 |
| 20260503191534 | 74 | 86 | 2.6 | 9.6 | 0.00 | 0.00 | 0.00 | 38 | 1011.7 |
| 20260503191025 | 74 | 113 | 1.7 | 8.7 | 0.00 | 0.00 | 0.00 | 37 | 1011.9 |
| 20260503190522 | 74 | 181 | 0.0 | 10.4 | 0.00 | 0.00 | 0.00 | 41 | 1011.9 |
| 20260503190021 | 73 | 36 | 2.6 | 10.4 | 0.00 | 0.00 | 0.00 | 39 | 1012.0 |
| 20260503185521 | 73 | 124 | 2.6 | 8.7 | 0.00 | 0.00 | 0.00 | 39 | 1012.1 |
| 20260503185020 | 73 | 107 | 1.7 | 7.8 | 0.00 | 0.00 | 0.00 | 40 | 1012.2 |
| 20260503184519 | 73 | 111 | 0.0 | 5.2 | 0.00 | 0.00 | 0.00 | 40 | 1012.4 |
| 20260503184018 | 73 | 259 | 0.9 | 5.2 | 0.00 | 0.00 | 0.00 | 40 | 1012.6 |
| 20260503183518 | 72 | 326 | 0.9 | 6.1 | 0.00 | 0.00 | 0.00 | 42 | 1012.6 |
| 20260503183016 | 72 | 107 | 2.6 | 7.8 | 0.00 | 0.00 | 0.00 | 41 | 1012.7 |
| 20260503182514 | 71 | 138 | 1.7 | 8.7 | 0.00 | 0.00 | 0.00 | 41 | 1012.9 |
| 20260503182012 | 71 | 205 | 0.9 | 8.7 | 0.00 | 0.00 | 0.00 | 41 | 1013.0 |
| 20260503181512 | 71 | 103 | 3.5 | 8.7 | 0.00 | 0.00 | 0.00 | 40 | 1013.2 |
| 20260503181011 | 71 | 184 | 1.7 | 12.2 | 0.00 | 0.00 | 0.00 | 42 | 1013.3 |
| 20260503180515 | 70 | 105 | 0.9 | 8.7 | 0.00 | 0.00 | 0.00 | 42 | 1013.4 |